Location: Asheville, NC
(35.6000°N, 82.5500°W)
Time: 22:54:11

nSIGHT-1 - Pass Details

Date: 16 March 2018
Orbit: 384 x 391 km, 51.6° (Epoch: 18 March)

Event Time Altitude Azimuth Distance (km) Brightness Sun altitude
Exits shadow 06:20:37 10° 335° (NNW) 1,397 ? -16.8°
Maximum altitude 06:23:16 26° 34° (NE) 812 ? -16.3°
Drops below altitude 10° 06:25:59 10° 93° (E) 1,411 ? -15.7°
Sets 06:28:15 0° 107° (ESE) 2,261 ? -15.3°
